,,PA_Meas_PMT16A,,PR_Meas_QMR101_102,,RH_Meas_QMH101,,SR_Meas_QMS101,,TA_Meas_QMH101,,GenWind,,GenWind,
time,status,PA,status,PR,status,RH,status,SR,status,TA,status,DirAvg,status,SpdAvg,
2010-10-21, 00:00:04,VALID,918.379,VALID,0,VALID,92.4187,VALID,0,VALID,19.4868,VALID,14,VALID,0,
2010-10-21, 00:01:04,VALID,918.349,VALID,0,VALID,92.7389,VALID,0,VALID,19.4673,VALID,14,VALID,0,
2010-10-21, 00:02:04,VALID,918.329,VALID,0,VALID,92.9066,VALID,0,VALID,19.4673,VALID,14,VALID,0,
2010-10-21, 00:03:04,VALID,918.307,VALID,0,VALID,92.9142,VALID,0,VALID,19.4883,VALID,14,VALID,0.363672,
2010-10-21, 00:04:04,VALID,918.314,VALID,0,VALID,92.6855,VALID,0,VALID,19.4478,VALID,14,VALID,0.15,
2010-10-21, 00:05:04,VALID,918.297,VALID,0,VALID,93.7451,VALID,0,VALID,19.5063,VALID,14,VALID,0.00195313,
2010-10-21, 00:06:04,VALID,918.271,VALID,0,VALID,93.5088,VALID,0,VALID,19.4673,VALID,14,VALID,0.35625,
2010-10-21, 00:07:04,VALID,918.265,VALID,0,VALID,92.9828,VALID,0,VALID,19.4673,VALID,14,VALID,0.461328,
2010-10-21, 00:08:04,VALID,918.251,VALID,0,VALID,92.5178,VALID,0,VALID,19.4673,VALID,14,VALID,0.300391,
2010-10-21, 00:09:04,VALID,918.205,VALID,0,VALID,92.1595,VALID,0,VALID,19.4688,VALID,14,VALID,0.228906,
2010-10-21, 00:10:04,VALID,918.242,VALID,0,VALID,91.7021,VALID,0,VALID,19.3893,VALID,14,VALID,0.380469,
2010-10-21, 00:11:04,VALID,918.188,VALID,0,VALID,92.5788,VALID,0,VALID,19.3518,VALID,14,VALID,0.272656,
2010-10-21, 00:12:04,VALID,918.182,VALID,0,VALID,93.707,VALID,0,VALID,19.3113,VALID,14,VALID,0.166406,
2010-10-21, 00:13:04,VALID,918.165,VALID,0,VALID,94.073,VALID,0,VALID,19.3128,VALID,14,VALID,0,
2010-10-21, 00:14:04,VALID,918.155,VALID,0,VALID,94.3779,VALID,0,VALID,19.3113,VALID,14,VALID,0.132422,
2010-10-21, 00:15:04,VALID,918.162,VALID,0,VALID,94.3169,VALID,0,VALID,19.3323,VALID,14,VALID,0.474219,
2010-10-21, 00:16:04,VALID,918.128,VALID,0,VALID,94.4999,VALID,0,VALID,19.3698,VALID,14,VALID,0.367969,
2010-10-21, 00:17:04,VALID,918.125,VALID,0,VALID,94.2635,VALID,0,VALID,19.4103,VALID,14,VALID,0.198047,
2010-10-21, 00:18:04,VALID,918.114,VALID,0,VALID,93.5317,VALID,0,VALID,19.3503,VALID,14,VALID,0,
2010-10-21, 00:19:04,VALID,918.123,VALID,0,VALID,93.3259,VALID,0,VALID,19.3503,VALID,14,VALID,0.18125,
2010-10-21, 00:20:04,VALID,918.119,VALID,0,VALID,93.951,VALID,0,VALID,19.4103,VALID,14,VALID,0,
2010-10-21, 00:21:04,VALID,918.116,VALID,0,VALID,93.4021,VALID,0,VALID,19.3503,VALID,14,VALID,0,
2010-10-21, 00:22:04,VALID,918.109,VALID,0,VALID,92.2967,VALID,0,VALID,19.2933,VALID,14,VALID,0.0902344,
2010-10-21, 00:23:04,VALID,918.122,VALID,0,VALID,93.0514,VALID,0,VALID,19.2334,VALID,14,VALID,0.320703,
2010-10-21, 00:24:04,VALID,918.12,VALID,0,VALID,94.0196,VALID,0,VALID,19.2139,VALID,14,VALID,0.311328,
2010-10-21, 00:25:04,VALID,918.109,VALID,0,VALID,94.5913,VALID,0,VALID,19.2528,VALID,14,VALID,0.217187,
2010-10-21, 00:26:04,VALID,918.078,VALID,0,VALID,94.66,VALID,0,VALID,19.2514,VALID,14,VALID,0.197266,
2010-10-21, 00:27:04,VALID,918.066,VALID,0,VALID,94.4465,VALID,0,VALID,19.3128,VALID,14,VALID,0,
2010-10-21, 00:28:04,VALID,918.042,VALID,0,VALID,94.0577,VALID,0,VALID,19.3113,VALID,14,VALID,0,
2010-10-21, 00:29:04,VALID,918.02,VALID,0,VALID,94.0501,VALID,0,VALID,19.3713,VALID,14,VALID,0.360938,
2010-10-21, 00:30:04,VALID,918.062,VALID,0,VALID,93.6308,VALID,0,VALID,19.3698,VALID,14,VALID,0.482812,
2010-10-21, 00:31:04,VALID,918.02,VALID,0,VALID,93.8366,VALID,0,VALID,19.4103,VALID,14,VALID,0,
2010-10-21, 00:32:04,VALID,917.982,VALID,0,VALID,93.0819,VALID,0,VALID,19.3713,VALID,14,VALID,0,
2010-10-21, 00:33:04,VALID,917.982,VALID,0,VALID,93.1429,VALID,0,VALID,19.3308,VALID,14,VALID,0.266016,
2010-10-21, 00:34:04,VALID,917.931,VALID,0,VALID,93.0362,VALID,0,VALID,19.3323,VALID,14,VALID,0,
2010-10-21, 00:35:04,VALID,917.889,VALID,0,VALID,93.4555,VALID,0,VALID,19.3113,VALID,14,VALID,0.283203,
2010-10-21, 00:36:04,VALID,917.855,VALID,0,VALID,92.6016,VALID,0,VALID,19.2723,VALID,14,VALID,0.291406,
2010-10-21, 00:37:04,VALID,917.828,VALID,0,VALID,92.8532,VALID,0,VALID,19.2738,VALID,14,VALID,0.484766,
2010-10-21, 00:38:04,VALID,917.846,VALID,0,VALID,93.0895,VALID,0,VALID,19.2738,VALID,14,VALID,0.410547,
2010-10-21, 00:39:04,VALID,917.796,VALID,0,VALID,93.12,VALID,0,VALID,19.2139,VALID,14,VALID,0.320313,
2010-10-21, 00:40:04,VALID,917.787,VALID,0,VALID,93.1581,VALID,0,VALID,19.2153,VALID,14,VALID,0.451953,
2010-10-21, 00:41:04,VALID,917.747,VALID,0,VALID,92.9981,VALID,0,VALID,19.1373,VALID,14,VALID,0.795313,
2010-10-21, 00:42:04,VALID,917.728,VALID,0,VALID,93.2115,VALID,0,VALID,19.0788,VALID,14,VALID,0.64375,
2010-10-21, 00:43:04,VALID,917.712,VALID,0,VALID,93.5241,VALID,0,VALID,19.0203,VALID,14,VALID,0.453516,
2010-10-21, 00:44:04,VALID,917.722,VALID,0,VALID,93.4631,VALID,0,VALID,18.9814,VALID,14,VALID,0.260156,
2010-10-21, 00:45:04,VALID,917.719,VALID,0,VALID,93.9434,VALID,0,VALID,18.9409,VALID,14,VALID,0.483984,
2010-10-21, 00:46:04,VALID,917.735,VALID,0,VALID,94.2788,VALID,0,VALID,18.9814,VALID,14,VALID,0.421484,
2010-10-21, 00:47:04,VALID,917.728,VALID,0,VALID,94.1492,VALID,0,VALID,18.9814,VALID,14,VALID,0.346484,
2010-10-21, 00:48:04,VALID,917.731,VALID,0,VALID,94.2864,VALID,0,VALID,19.0008,VALID,14,VALID,0.542188,
2010-10-21, 00:49:04,VALID,917.727,VALID,0,VALID,94.3169,VALID,0,VALID,19.0189,VALID,14,VALID,0.492578,
2010-10-21, 00:50:04,VALID,917.692,VALID,0,VALID,93.9052,VALID,0,VALID,19.0189,VALID,14,VALID,0.141406,
2010-10-21, 00:51:04,VALID,917.661,VALID,0,VALID,93.9738,VALID,0,VALID,19.0983,VALID,14,VALID,0.395312,
2010-10-21, 00:52:04,VALID,917.644,VALID,0,VALID,93.8061,VALID,0,VALID,19.1583,VALID,14,VALID,0.0269531,
2010-10-21, 00:53:04,VALID,917.617,VALID,0,VALID,93.646,VALID,0,VALID,19.1763,VALID,14,VALID,0.202734,
2010-10-21, 00:54:04,VALID,917.598,VALID,0,VALID,93.4478,VALID,0,VALID,19.2153,VALID,14,VALID,0.513281,
2010-10-21, 00:55:04,VALID,917.595,VALID,0,VALID,93.425,VALID,0,VALID,19.2334,VALID,14,VALID,0.340234,
2010-10-21, 00:56:04,VALID,917.564,VALID,0,VALID,93.3945,VALID,0,VALID,19.2918,VALID,14,VALID,0.460156,
2010-10-21, 00:57:04,VALID,917.569,VALID,0,VALID,93.3182,VALID,0,VALID,19.3713,VALID,14,VALID,0.231641,
2010-10-21, 00:58:04,VALID,917.552,VALID,0,VALID,93.0895,VALID,0,VALID,19.3908,VALID,14,VALID,0.144531,
2010-10-21, 00:59:04,VALID,917.548,VALID,0,VALID,92.9676,VALID,0,VALID,19.4088,VALID,14,VALID,0.220703,
2010-10-21, 01:00:04,VALID,917.502,VALID,0,VALID,92.838,VALID,0,VALID,19.4283,VALID,14,VALID,0.558984,
2010-10-21, 01:01:04,VALID,917.526,VALID,0,VALID,91.4734,VALID,0,VALID,19.4088,VALID,14,VALID,0.142969,
2010-10-21, 01:02:04,VALID,917.493,VALID,0,VALID,90.8864,VALID,0,VALID,19.3503,VALID,14,VALID,0.532031,
2010-10-21, 01:03:04,VALID,917.482,VALID,0,VALID,91.6792,VALID,0,VALID,19.2348,VALID,14,VALID,0.500391,
2010-10-21, 01:04:04,VALID,917.484,VALID,0,VALID,92.5254,VALID,0,VALID,19.1164,VALID,14,VALID,0.514453,
2010-10-21, 01:05:04,VALID,917.449,VALID,0,VALID,93.4783,VALID,0,VALID,19.0384,VALID,14,VALID,0.406641,
2010-10-21, 01:06:04,VALID,917.42,VALID,0,VALID,93.8747,VALID,0,VALID,19.0189,VALID,14,VALID,0.0882813,
2010-10-21, 01:07:04,VALID,917.415,VALID,0,VALID,94.1034,VALID,0,VALID,18.9994,VALID,14,VALID,0,
2010-10-21, 01:08:04,VALID,917.404,VALID,0,VALID,94.0577,VALID,0,VALID,19.0008,VALID,14,VALID,0,
2010-10-21, 01:09:04,VALID,917.376,VALID,0,VALID,94.0501,VALID,0,VALID,18.9799,VALID,14,VALID,0,
2010-10-21, 01:10:04,VALID,917.4,VALID,0,VALID,94.1492,VALID,0,VALID,18.9799,VALID,14,VALID,0,
2010-10-21, 01:11:04,VALID,917.365,VALID,0,VALID,93.9052,VALID,0,VALID,18.9814,VALID,14,VALID,0,
2010-10-21, 01:12:04,VALID,917.354,VALID,0,VALID,93.6613,VALID,0,VALID,18.9619,VALID,14,VALID,0,
2010-10-21, 01:13:04,VALID,917.347,VALID,0,VALID,93.5622,VALID,0,VALID,18.9814,VALID,14,VALID,0,
2010-10-21, 01:14:04,VALID,917.324,VALID,0,VALID,93.6232,VALID,0,VALID,18.9604,VALID,14,VALID,0,
2010-10-21, 01:15:04,VALID,917.284,VALID,0,VALID,93.5241,VALID,0,VALID,18.9619,VALID,14,VALID,0,
2010-10-21, 01:16:04,VALID,917.282,VALID,0,VALID,93.2572,VALID,0,VALID,18.9633,VALID,14,VALID,0.291016,
2010-10-21, 01:17:04,VALID,917.293,VALID,0,VALID,93.0895,VALID,0,VALID,18.9229,VALID,14,VALID,0.203516,
2010-10-21, 01:18:04,VALID,917.316,VALID,0,VALID,93.2954,VALID,0,VALID,18.9034,VALID,14,VALID,0,
2010-10-21, 01:19:04,VALID,917.29,VALID,0,VALID,93.9205,VALID,0,VALID,18.9034,VALID,14,VALID,0,
2010-10-21, 01:20:04,VALID,917.275,VALID,0,VALID,94.4617,VALID,0,VALID,18.9229,VALID,14,VALID,0,
2010-10-21, 01:21:04,VALID,917.225,VALID,0,VALID,94.4846,VALID,0,VALID,18.9424,VALID,14,VALID,0.130078,
2010-10-21, 01:22:04,VALID,917.242,VALID,0,VALID,94.2407,VALID,0,VALID,18.9034,VALID,14,VALID,0.631641,
2010-10-21, 01:23:04,VALID,917.213,VALID,0,VALID,94.477,VALID,0,VALID,18.8434,VALID,14,VALID,0.489062,
2010-10-21, 01:24:04,VALID,917.207,VALID,0,VALID,94.7896,VALID,0,VALID,18.8644,VALID,14,VALID,0.335547,
2010-10-21, 01:25:04,VALID,917.188,VALID,0,VALID,95.064,VALID,0,VALID,18.8839,VALID,14,VALID,0.412109,
2010-10-21, 01:26:04,VALID,917.152,VALID,0,VALID,94.8582,VALID,0,VALID,18.8254,VALID,14,VALID,0.647266,
2010-10-21, 01:27:04,VALID,917.124,VALID,0,VALID,94.5532,VALID,0,VALID,18.7864,VALID,14,VALID,0.732031,
2010-10-21, 01:28:04,VALID,917.133,VALID,0,VALID,94.5761,VALID,0,VALID,18.7474,VALID,14,VALID,0.586719,
2010-10-21, 01:29:04,VALID,917.118,VALID,0,VALID,95.1555,VALID,0,VALID,18.7669,VALID,14,VALID,0.560156,
2010-10-21, 01:30:04,VALID,917.127,VALID,0,VALID,95.5367,VALID,0,VALID,18.8059,VALID,14,VALID,0.390234,
2010-10-21, 01:31:04,VALID,917.147,VALID,0,VALID,95.712,VALID,0,VALID,18.8254,VALID,14,VALID,0.25625,
2010-10-21, 01:32:04,VALID,917.129,VALID,0,VALID,95.8568,VALID,0,VALID,18.8839,VALID,14,VALID,0.249609,
2010-10-21, 01:33:04,VALID,917.116,VALID,0,VALID,95.8492,VALID,0,VALID,18.8824,VALID,14,VALID,0.166016,
2010-10-21, 01:34:04,VALID,917.133,VALID,0,VALID,95.7272,VALID,0,VALID,18.9034,VALID,14,VALID,0.0457031,
2010-10-21, 01:35:04,VALID,917.134,VALID,0,VALID,95.6815,VALID,0,VALID,18.9019,VALID,14,VALID,0.046875,
2010-10-21, 01:36:04,VALID,917.093,VALID,0,VALID,95.6053,VALID,0,VALID,18.9229,VALID,14,VALID,0,
2010-10-21, 01:37:04,VALID,917.1,VALID,0,VALID,95.4985,VALID,0,VALID,18.9424,VALID,14,VALID,0,
2010-10-21, 01:38:04,VALID,917.106,VALID,0,VALID,95.3613,VALID,0,VALID,18.9424,VALID,14,VALID,0,
2010-10-21, 01:39:04,VALID,917.06,VALID,0,VALID,95.5367,VALID,0,VALID,18.9604,VALID,14,VALID,0,
2010-10-21, 01:40:04,VALID,917.045,VALID,0,VALID,95.6434,VALID,0,VALID,19.0203,VALID,14,VALID,0.248047,
2010-10-21, 01:41:04,VALID,917.062,VALID,0,VALID,95.3613,VALID,0,VALID,18.9799,VALID,14,VALID,0.283203,
2010-10-21, 01:42:04,VALID,917.042,VALID,0,VALID,95.4375,VALID,0,VALID,19.0008,VALID,14,VALID,0.126953,
2010-10-21, 01:43:04,VALID,917.021,VALID,0,VALID,95.6739,VALID,0,VALID,19.0189,VALID,14,VALID,0.132813,
2010-10-21, 01:44:04,VALID,917.021,VALID,0,VALID,95.7654,VALID,0,VALID,19.0579,VALID,14,VALID,0.234766,
2010-10-21, 01:45:04,VALID,917,VALID,0,VALID,95.7196,VALID,0,VALID,19.0788,VALID,14,VALID,0.516797,
2010-10-21, 01:46:04,VALID,916.952,VALID,0,VALID,94.82,VALID,0,VALID,18.9019,VALID,14,VALID,0.440625,
2010-10-21, 01:47:04,VALID,916.957,VALID,0,VALID,94.477,VALID,0,VALID,18.8434,VALID,14,VALID,0.558984,
2010-10-21, 01:48:04,VALID,916.938,VALID,0,VALID,95.0792,VALID,0,VALID,18.9034,VALID,14,VALID,0.432813,
2010-10-21, 01:49:04,VALID,916.935,VALID,0,VALID,95.5443,VALID,0,VALID,18.9229,VALID,14,VALID,0.351563,
2010-10-21, 01:50:04,VALID,916.93,VALID,0,VALID,95.9864,VALID,0,VALID,19.0008,VALID,14,VALID,0.359766,
2010-10-21, 01:51:04,VALID,916.932,VALID,0,VALID,96.0398,VALID,0,VALID,19.0203,VALID,14,VALID,0.237109,
2010-10-21, 01:52:04,VALID,916.91,VALID,0,VALID,96.1694,VALID,0,VALID,19.0398,VALID,14,VALID,0.399609,
2010-10-21, 01:53:04,VALID,916.904,VALID,0,VALID,96.2837,VALID,0.107441,VALID,19.1178,VALID,14,VALID,0.399219,
2010-10-21, 01:54:04,VALID,916.893,VALID,0,VALID,96.2837,VALID,0,VALID,19.1373,VALID,14,VALID,0.542969,
2010-10-21, 01:55:04,VALID,916.858,VALID,0,VALID,96.299,VALID,0,VALID,19.1958,VALID,14,VALID,0.525,
2010-10-21, 01:56:04,VALID,916.848,VALID,0,VALID,96.2228,VALID,0,VALID,19.2153,VALID,14,VALID,0.605078,
2010-10-21, 01:57:04,VALID,916.852,VALID,0,VALID,96.116,VALID,0,VALID,19.1958,VALID,14,VALID,0.729688,
2010-10-21, 01:58:04,VALID,916.869,VALID,0,VALID,96.0855,VALID,0,VALID,19.2153,VALID,14,VALID,0.745703,
2010-10-21, 01:59:04,VALID,916.843,VALID,0,VALID,95.9712,VALID,0,VALID,19.2348,VALID,14,VALID,0.504687,
2010-10-21, 02:00:04,VALID,916.816,VALID,0,VALID,95.9331,VALID,0,VALID,19.2543,VALID,14,VALID,0.825391,
2010-10-21, 02:01:04,VALID,916.82,VALID,0,VALID,95.8797,VALID,0,VALID,19.2933,VALID,14,VALID,0.777734,
2010-10-21, 02:02:04,VALID,916.802,VALID,0,VALID,95.7654,VALID,0,VALID,19.3323,VALID,14,VALID,0.354688,
2010-10-21, 02:03:04,VALID,916.808,VALID,0,VALID,95.5748,VALID,0,VALID,19.3308,VALID,14,VALID,0.390625,
2010-10-21, 02:04:04,VALID,916.755,VALID,0,VALID,95.3994,VALID,0,VALID,19.3698,VALID,14,VALID,0.678516,
2010-10-21, 02:05:04,VALID,916.742,VALID,0,VALID,94.9649,VALID,0,VALID,19.3908,VALID,14,VALID,0.438281,
2010-10-21, 02:06:04,VALID,916.718,VALID,0,VALID,94.7819,VALID,0,VALID,19.4088,VALID,14,VALID,0.605078,
2010-10-21, 02:07:04,VALID,916.685,VALID,0,VALID,94.5685,VALID,0,VALID,19.4103,VALID,13,VALID,0.523438,
2010-10-21, 02:08:04,VALID,916.654,VALID,0,VALID,94.4465,VALID,0,VALID,19.4298,VALID,13,VALID,0.450391,
2010-10-21, 02:09:04,VALID,916.614,VALID,0,VALID,94.4008,VALID,0,VALID,19.4298,VALID,14,VALID,0.658984,
2010-10-21, 02:10:04,VALID,916.538,VALID,0,VALID,94.3474,VALID,0,VALID,19.4298,VALID,13,VALID,0.578125,
2010-10-21, 02:11:04,VALID,916.541,VALID,0,VALID,94.4465,VALID,0,VALID,19.4298,VALID,13,VALID,0.629687,
2010-10-21, 02:12:04,VALID,916.581,VALID,0,VALID,94.3855,VALID,0,VALID,19.4298,VALID,13,VALID,0.425781,
2010-10-21, 02:13:04,VALID,916.549,VALID,0,VALID,94.416,VALID,0,VALID,19.4298,VALID,13,VALID,0.224219,
2010-10-21, 02:14:04,VALID,916.5,VALID,0,VALID,94.5532,VALID,0,VALID,19.4493,VALID,13,VALID,0.0894531,
2010-10-21, 02:15:04,VALID,916.519,VALID,0,VALID,94.3779,VALID,0,VALID,19.4298,VALID,13,VALID,0.244141,
2010-10-21, 02:16:04,VALID,916.503,VALID,0,VALID,94.2635,VALID,0,VALID,19.3893,VALID,13,VALID,0.368359,
2010-10-21, 02:17:04,VALID,916.484,VALID,0,VALID,94.2407,VALID,0,VALID,19.3908,VALID,13,VALID,0.488672,
2010-10-21, 02:18:04,VALID,916.476,VALID,0,VALID,94.0653,VALID,0,VALID,19.3518,VALID,13,VALID,0.382813,
2010-10-21, 02:19:04,VALID,916.467,VALID,0,VALID,94.0653,VALID,0,VALID,19.3518,VALID,13,VALID,0,
2010-10-21, 02:20:04,VALID,916.454,VALID,0,VALID,94.4465,VALID,0,VALID,19.3518,VALID,13,VALID,0.392969,
2010-10-21, 02:21:04,VALID,916.442,VALID,0,VALID,94.6828,VALID,0,VALID,19.3518,VALID,13,VALID,0.329688,
2010-10-21, 02:22:04,VALID,916.433,VALID,0,VALID,94.8124,VALID,0,VALID,19.3518,VALID,13,VALID,0.4625,
2010-10-21, 02:23:04,VALID,916.378,VALID,0,VALID,94.7438,VALID,0,VALID,19.3113,VALID,13,VALID,0.433594,
2010-10-21, 02:24:04,VALID,916.346,VALID,0,VALID,94.8124,VALID,0,VALID,19.3323,VALID,14,VALID,0.774219,
2010-10-21, 02:25:04,VALID,916.337,VALID,0,VALID,95.125,VALID,0,VALID,19.3518,VALID,13,VALID,0.577344,
2010-10-21, 02:26:04,VALID,916.328,VALID,0,VALID,95.2012,VALID,0,VALID,19.3518,VALID,13,VALID,0.382422,
2010-10-21, 02:27:04,VALID,916.346,VALID,0,VALID,95.0335,VALID,0,VALID,19.3308,VALID,13,VALID,0.839844,
2010-10-21, 02:28:04,VALID,916.325,VALID,0,VALID,95.1402,VALID,0,VALID,19.3893,VALID,13,VALID,0.593359,
2010-10-21, 02:29:04,VALID,916.351,VALID,0,VALID,94.5685,VALID,0,VALID,19.4103,VALID,13,VALID,0.154297,
2010-10-21, 02:30:04,VALID,916.351,VALID,0,VALID,94.0425,VALID,0,VALID,19.4103,VALID,13,VALID,0.317578,
2010-10-21, 02:31:04,VALID,916.339,VALID,0,VALID,93.8061,VALID,0,VALID,19.3908,VALID,13,VALID,0.536719,
2010-10-21, 02:32:04,VALID,916.289,VALID,0,VALID,93.5698,VALID,0,VALID,19.3308,VALID,13,VALID,0.533594,
2010-10-21, 02:33:04,VALID,916.311,VALID,0,VALID,93.5241,VALID,0,VALID,19.3128,VALID,13,VALID,0.382813,
2010-10-21, 02:34:04,VALID,916.311,VALID,0,VALID,93.8824,VALID,0,VALID,19.3128,VALID,13,VALID,0.176563,
2010-10-21, 02:35:04,VALID,916.285,VALID,0,VALID,94.2635,VALID,0,VALID,19.3128,VALID,13,VALID,0.170703,
2010-10-21, 02:36:04,VALID,916.288,VALID,0,VALID,94.3931,VALID,0,VALID,19.3113,VALID,13,VALID,0.452344,
2010-10-21, 02:37:04,VALID,916.259,VALID,0,VALID,94.4084,VALID,0,VALID,19.3128,VALID,13,VALID,0.00507812,
2010-10-21, 02:38:04,VALID,916.221,VALID,0,VALID,94.3245,VALID,0,VALID,19.2918,VALID,13,VALID,0,
2010-10-21, 02:39:04,VALID,916.191,VALID,0,VALID,94.5913,VALID,0,VALID,19.3323,VALID,13,VALID,0.328516,
2010-10-21, 02:40:04,VALID,916.147,VALID,0,VALID,94.7819,VALID,0,VALID,19.3518,VALID,13,VALID,0.301172,
2010-10-21, 02:41:04,VALID,916.141,VALID,0,VALID,94.1949,VALID,0,VALID,19.3113,VALID,13,VALID,0.0175781,
2010-10-21, 02:42:04,VALID,916.117,VALID,0,VALID,92.3196,VALID,0,VALID,19.2153,VALID,13,VALID,0.216016,
2010-10-21, 02:43:04,VALID,916.114,VALID,0,VALID,93.5469,VALID,0,VALID,19.2348,VALID,13,VALID,0.340625,
2010-10-21, 02:44:04,VALID,916.131,VALID,0,VALID,94.1721,VALID,0,VALID,19.1958,VALID,13,VALID,0.115625,
2010-10-21, 02:45:04,VALID,916.129,VALID,0,VALID,94.0577,VALID,0,VALID,19.1568,VALID,13,VALID,0,
2010-10-21, 02:46:04,VALID,916.132,VALID,0,VALID,94.2559,VALID,0,VALID,19.1568,VALID,13,VALID,0,
2010-10-21, 02:47:04,VALID,916.162,VALID,0,VALID,94.6066,VALID,0,VALID,19.1554,VALID,13,VALID,0,
2010-10-21, 02:48:04,VALID,916.116,VALID,0,VALID,94.9801,VALID,0,VALID,19.1763,VALID,13,VALID,0,
2010-10-21, 02:49:04,VALID,916.059,VALID,0,VALID,94.599,VALID,0,VALID,19.1178,VALID,13,VALID,0.355859,
2010-10-21, 02:50:04,VALID,916.071,VALID,0,VALID,93.7909,VALID,0,VALID,18.9814,VALID,13,VALID,0.770312,
2010-10-21, 02:51:04,VALID,916.046,VALID,0,VALID,94.4846,VALID,0,VALID,18.9619,VALID,13,VALID,0.754297,
2010-10-21, 02:52:04,VALID,916.066,VALID,0,VALID,94.8887,VALID,0,VALID,18.9229,VALID,13,VALID,0.910156,
2010-10-21, 02:53:04,VALID,916.06,VALID,0,VALID,95.2241,VALID,0,VALID,18.8644,VALID,13,VALID,0.883203,
2010-10-21, 02:54:04,VALID,916.059,VALID,0,VALID,94.9649,VALID,0.107441,VALID,18.7669,VALID,13,VALID,0.713672,
2010-10-21, 02:55:04,VALID,916.059,VALID,0,VALID,95.4375,VALID,0,VALID,18.7864,VALID,13,VALID,0.666797,
2010-10-21, 02:56:04,VALID,916.068,VALID,0,VALID,95.6586,VALID,0,VALID,18.8254,VALID,13,VALID,0.694141,
2010-10-21, 02:57:04,VALID,916.07,VALID,0,VALID,95.6815,VALID,0,VALID,18.8254,VALID,13,VALID,0.823047,
2010-10-21, 02:58:04,VALID,916.062,VALID,0,VALID,95.59,VALID,0,VALID,18.8434,VALID,13,VALID,0.824219,
2010-10-21, 02:59:04,VALID,916.073,VALID,0,VALID,95.4147,VALID,0.107441,VALID,18.8434,VALID,13,VALID,0.901172,
2010-10-21, 03:00:04,VALID,916.05,VALID,0,VALID,95.2622,VALID,0,VALID,18.8839,VALID,13,VALID,0.780469,
2010-10-21, 03:01:04,VALID,916.036,VALID,0,VALID,95.0259,VALID,0,VALID,18.9034,VALID,13,VALID,0.711328,
2010-10-21, 03:02:04,VALID,916.022,VALID,0,VALID,94.7819,VALID,0,VALID,18.9034,VALID,13,VALID,0.889063,
2010-10-21, 03:03:04,VALID,915.999,VALID,0,VALID,94.6981,VALID,0,VALID,18.9214,VALID,13,VALID,0.739062,
2010-10-21, 03:04:04,VALID,915.981,VALID,0,VALID,94.5151,VALID,0,VALID,18.9604,VALID,13,VALID,0.492578,
2010-10-21, 03:05:04,VALID,915.973,VALID,0,VALID,93.5012,VALID,0,VALID,18.9619,VALID,13,VALID,0.283594,
2010-10-21, 03:06:04,VALID,915.958,VALID,0,VALID,93.2268,VALID,0,VALID,18.9814,VALID,13,VALID,0.804688,
2010-10-21, 03:07:04,VALID,915.955,VALID,0,VALID,92.716,VALID,0,VALID,18.9229,VALID,13,VALID,0.492969,
2010-10-21, 03:08:04,VALID,915.946,VALID,0,VALID,93.0743,VALID,0,VALID,18.9034,VALID,13,VALID,0.595703,
2010-10-21, 03:09:04,VALID,915.947,VALID,0,VALID,93.9052,VALID,0,VALID,18.8839,VALID,13,VALID,0.373828,
2010-10-21, 03:10:04,VALID,915.97,VALID,0,VALID,94.1949,VALID,0,VALID,18.9034,VALID,13,VALID,0.430078,
2010-10-21, 03:11:04,VALID,915.956,VALID,0,VALID,94.4008,VALID,0,VALID,18.9034,VALID,13,VALID,0.398828,
2010-10-21, 03:12:04,VALID,915.961,VALID,0,VALID,94.6676,VALID,0,VALID,18.9034,VALID,13,VALID,0.533594,
2010-10-21, 03:13:04,VALID,915.942,VALID,0,VALID,95.1783,VALID,0,VALID,18.9424,VALID,13,VALID,1.01719,
2010-10-21, 03:14:04,VALID,915.941,VALID,0,VALID,95.1479,VALID,0,VALID,18.9034,VALID,13,VALID,0.425391,
2010-10-21, 03:15:04,VALID,915.929,VALID,0,VALID,94.9954,VALID,0,VALID,18.8254,VALID,13,VALID,0.926953,
2010-10-21, 03:16:04,VALID,915.897,VALID,0,VALID,95.0106,VALID,0,VALID,18.8059,VALID,13,VALID,0.950391,
2010-10-21, 03:17:04,VALID,915.894,VALID,0,VALID,95.003,VALID,0,VALID,18.7474,VALID,13,VALID,1.12344,
2010-10-21, 03:18:04,VALID,915.891,VALID,0,VALID,95.0792,VALID,0,VALID,18.7474,VALID,12,VALID,0.554297,
2010-10-21, 03:19:04,VALID,915.867,VALID,0,VALID,94.9573,VALID,0,VALID,18.7279,VALID,12,VALID,0.885547,
2010-10-21, 03:20:04,VALID,915.836,VALID,0,VALID,94.9192,VALID,0,VALID,18.7084,VALID,8,VALID,1.44648,
2010-10-21, 03:21:04,VALID,915.848,VALID,0,VALID,95.003,VALID,0,VALID,18.7279,VALID,5,VALID,0.776563,
2010-10-21, 03:22:04,VALID,915.827,VALID,0,VALID,95.1631,VALID,0,VALID,18.7279,VALID,3,VALID,0.41875,
2010-10-21, 03:23:04,VALID,915.809,VALID,0,VALID,95.3994,VALID,0,VALID,18.7669,VALID,3,VALID,0.483203,
2010-10-21, 03:24:04,VALID,915.802,VALID,0,VALID,95.5214,VALID,0,VALID,18.7864,VALID,3,VALID,0.726563,
2010-10-21, 03:25:04,VALID,915.811,VALID,0,VALID,95.5671,VALID,0,VALID,18.8059,VALID,345,VALID,1.03398,
2010-10-21, 03:26:04,VALID,915.823,VALID,0,VALID,95.5062,VALID,0,VALID,18.8449,VALID,344,VALID,0.463281,
2010-10-21, 03:27:04,VALID,915.788,VALID,0,VALID,95.3918,VALID,0,VALID,18.8449,VALID,344,VALID,0.355078,
2010-10-21, 03:28:04,VALID,915.794,VALID,0,VALID,95.2775,VALID,0,VALID,18.8449,VALID,344,VALID,0.373828,
2010-10-21, 03:29:04,VALID,915.793,VALID,0,VALID,95.1555,VALID,0,VALID,18.8449,VALID,344,VALID,0.691406,
2010-10-21, 03:30:04,VALID,915.797,VALID,0,VALID,95.1021,VALID,0,VALID,18.8839,VALID,344,VALID,1.175,
2010-10-21, 03:31:04,VALID,915.808,VALID,0,VALID,94.942,VALID,0,VALID,18.9034,VALID,344,VALID,0.675781,
2010-10-21, 03:32:04,VALID,915.818,VALID,0,VALID,94.8887,VALID,0,VALID,18.9034,VALID,344,VALID,0.470313,
2010-10-21, 03:33:04,VALID,915.804,VALID,0,VALID,94.3321,VALID,0,VALID,18.8434,VALID,344,VALID,0.442969,
2010-10-21, 03:34:04,VALID,915.805,VALID,0,VALID,93.5012,VALID,0,VALID,18.8254,VALID,344,VALID,0.544531,
2010-10-21, 03:35:04,VALID,915.818,VALID,0,VALID,93.8138,VALID,0,VALID,18.7864,VALID,344,VALID,0.152344,
2010-10-21, 03:36:04,VALID,915.81,VALID,0,VALID,94.1949,VALID,0,VALID,18.7655,VALID,344,VALID,0.084375,
2010-10-21, 03:37:04,VALID,915.817,VALID,0,VALID,94.5227,VALID,0,VALID,18.7669,VALID,344,VALID,0.452344,
2010-10-21, 03:38:04,VALID,915.781,VALID,0,VALID,94.1111,VALID,0,VALID,18.6889,VALID,344,VALID,0.933594,
2010-10-21, 03:39:04,VALID,915.815,VALID,0,VALID,94.4465,VALID,0,VALID,18.6694,VALID,344,VALID,0.605078,
2010-10-21, 03:40:04,VALID,915.831,VALID,0,VALID,94.7133,VALID,0,VALID,18.6694,VALID,344,VALID,0.340625,
2010-10-21, 03:41:04,VALID,915.851,VALID,0,VALID,94.9496,VALID,0,VALID,18.6499,VALID,344,VALID,0.337109,
2010-10-21, 03:42:04,VALID,915.862,VALID,0,VALID,95.2546,VALID,0,VALID,18.7084,VALID,344,VALID,0.345703,
2010-10-21, 03:43:04,VALID,915.852,VALID,0,VALID,95.5976,VALID,0,VALID,18.7474,VALID,344,VALID,0.778906,
2010-10-21, 03:44:04,VALID,915.861,VALID,0,VALID,95.5062,VALID,0,VALID,18.7279,VALID,344,VALID,0.849609,
2010-10-21, 03:45:04,VALID,915.871,VALID,0,VALID,95.3079,VALID,0,VALID,18.6694,VALID,344,VALID,1.01992,
2010-10-21, 03:46:04,VALID,915.918,VALID,0,VALID,95.4452,VALID,0,VALID,18.7279,VALID,344,VALID,0.547656,
2010-10-21, 03:47:04,VALID,915.925,VALID,0,VALID,95.3766,VALID,0,VALID,18.7279,VALID,344,VALID,0.750391,
2010-10-21, 03:48:04,VALID,915.94,VALID,0,VALID,95.3079,VALID,0,VALID,18.7474,VALID,344,VALID,0.794141,